Location: Rio Negrinho
(26.2394°S, 49.4999°W)
Time: 18:57:53
(UTC+00:00)

Envisat - Pass Details

Date: 26 July 2021
Orbit: 764 x 766 km, 98.2° (Epoch: 17 September)

Event Time Altitude Azimuth Distance (km) Brightness Sun altitude
Rises 21:02:42 0° 180° (S) 3,256 6.0 -3.7°
Reaches altitude 10° 21:05:10 10° 188° (S) 2,323 5.4 -4.2°
Maximum altitude 21:09:49 36° 253° (WSW) 1,198 4.7 -5.2°
Drops below altitude 10° 21:14:26 10° 319° (NW) 2,300 6.5 -6.2°
Sets 21:16:53 0° 327° (NNW) 3,218 7.1 -6.7°
